Volver al catálogo

STARLINK-4170

ActivoComunicacionesVLEO
NORAD 53140·PAYLOAD·🇺🇸 United States

Lanzado Jul 17, 2022 desde Cape Canaveral Space Force Station

Loading…

Próximos Pases (próximas 24 horas)

TLE

ActualizadoSource: CelesTrak SupGP

Época: Sep 15, 2026, 02:58 UTC

1 53140C 22083J   26258.12409722 -.00012000  00000+0 -34342-3 0  2589
2 53140  53.1592  31.3079 0001148  88.9557 272.5605 15.35397568    19

Sigue STARLINK-4170 en tiempo real con AllMySat

Download on the App Store